EW6462 Weather Reports


time (UTC)temp
C
wind
direction
speed
KPH
gust
KPH
rain 1hr
cm
rain 24hr
cm
rain mn
cm
humidity
%
barometer
mb
20200227111213 2 215 11.3 20.9 0.00 0.08 0.03 84 0.8
20200227110213 2 203 12.9 29.0 0.00 0.08 0.03 83 1.2
20200227105212 2 175 14.5 22.5 0.00 0.08 0.03 84 1.3
20200227103212 2 205 11.3 20.9 0.00 0.08 0.03 85 2.0
20200227102212 2 200 9.7 16.1 0.00 0.08 0.03 86 2.1
20200227093212 2 190 14.5 22.5 0.00 0.15 0.03 87 3.3
20200227090212 2 192 16.1 20.9 0.03 0.15 0.03 89 4.0
20200227085211 1 192 12.9 20.9 0.03 0.23 0.03 89 4.3
20200227081211 1 240 12.9 24.1 0.03 0.23 0.03 91 4.6
20200227074211 1 215 11.3 22.5 0.00 0.23 0.00 92 4.9
20200227071211 1 218 11.3 19.3 0.00 0.23 0.00 93 4.8
20200227065210 0 222 11.3 24.1 0.00 0.23 0.00 93 5.0
20200227063210 0 258 6.4 19.3 0.00 0.23 0.00 94 4.9
20200226210322 1 244 11.3 17.7 0.00 0.30 0.28 94 5.1
20200226204321 1 245 11.3 19.3 0.00 0.38 0.28 93 4.7
20200226203321 1 293 12.9 22.5 0.00 0.38 0.28 93 4.8
20200226200320 1 230 12.9 24.1 0.00 0.38 0.28 93 4.3
20200226195320 1 271 8.0 25.7 0.00 0.53 0.28 93 4.2
20200226193320 1 237 12.9 19.3 0.00 0.53 0.28 93 4.0
20200226190320 1 280 11.3 22.5 0.00 0.53 0.28 93 3.8
20200226185320 1 259 14.5 24.1 0.00 0.53 0.28 93 3.6
20200226182320 1 260 14.5 22.5 0.00 0.53 0.28 93 3.3
20200226174319 1 267 12.9 25.7 0.00 0.53 0.28 91 2.6
20200226173209 1 252 14.5 24.1 0.00 0.53 0.28 91 2.6
20200226172209 1 261 17.7 25.7 0.00 0.53 0.28 91 2.5
20200226171209 1 223 16.1 25.7 0.00 0.53 0.28 90 2.2
20200226170210 1 299 20.9 30.6 0.00 0.53 0.28 90 1.9
20200226165209 1 244 14.5 22.5 0.00 0.53 0.28 88 1.8
20200226164209 2 246 12.9 22.5 0.00 0.53 0.28 88 1.7
20200226162209 2 306 17.7 27.4 0.00 0.53 0.28 89 1.3
20200226161209 2 263 14.5 27.4 0.00 0.53 0.28 89 1.2
20200226160209 2 257 14.5 24.1 0.00 0.53 0.28 89 1.1
20200226155208 2 266 14.5 24.1 0.00 0.53 0.28 88 1.0
20200226153208 2 250 16.1 29.0 0.00 0.53 0.28 85 0.7
20200226145208 2 276 12.9 24.1 0.00 0.53 0.28 89
20200226135212 1 279 8.0 14.5 0.05 0.53 0.28 92 999.0
20200226132212 2 275 11.3 29.0 0.00 0.51 0.23 89 998.3
20200226125212 2 264 14.5 29.0 0.03 0.51 0.23 91 997.7
20200226123212 1 270 14.5 24.1 0.03 0.51 0.23 92 997.4